Regional Weather Roundup
Issued by NWS

Home | Current Version | Previous Version | Graphics & Text | Print | Product List | Glossary On
Versions: 1 2 3 4 5 6 7 8 9 10 11 12 13 14 15 16 17 18 19 20 21 22 23 24 25 26 27 28 29 30 31 32 33 34 35 36 37 38 39 40 41 42 43 44 45 46 47 48 49 50
000
ASUS43 KMKX 260200
RWRWI

WISCONSIN REGIONAL WEATHER ROUNDUP
NATIONAL WEATHER SERVICE MILWAUKEE/SULLIVAN WI
900 PM CDT WED MAY 25 2016

NOTE: "FAIR" INDICATES FEW OR NO CLOUDS BELOW 12,000 FEET WITH NO
SIGNIFICANT WEATHER AND/OR OBSTRUCTIONS TO VISIBILITY.

WIZ001-002-006>008-014>016-023>028-260300-
NORTHWEST WISCONSIN

CITY           SKY/WX    TMP DP  RH WIND       PRES   REMARKS
SUPERIOR ARPT  CLOUDY    43  43  99 NE10G18   29.93S
ASHLAND        HVY RAIN  50  50 100 E14G25    29.87F FOG
HAYWARD        CLOUDY    54  53  97 N7        29.89R
SIREN          CLOUDY    59  57  92 E5        29.87R
CUMBERLAND     CLOUDY    61  59  94 N6        29.86S
RICE LAKE      CLOUDY    63  60  92 N7        29.87R
CHETEK         CLOUDY    63  63 100 NW5       29.86R
LADYSMITH      CLOUDY    65  63  94 N7        29.85R
EAU CLAIRE     PTCLDY    64  63  94 CALM      29.84R FOG
MENOMONIE      CLOUDY    67  66  98 CALM      29.85R
NEW RICHMOND   CLEAR     67  62  84 NE6       29.84S
OSCEOLA        PTCLDY    66  66 100 E6        29.86S
$$

WIZ003>005-009-010-017-018-260300-
NORTH CENTRAL WISCONSIN

CITY           SKY/WX    TMP DP  RH WIND       PRES   REMARKS
MANITOWISH WTR NOT AVBL
ARBOR VITAE    HVY RAIN  62  60  93 E7        29.88F
WOODRUFF       HVY RAIN  62  60  93 E7        29.88F
RHINELANDER    RAIN      62  59  90 E14       29.88S FOG
EAGLE RIVER    RAIN      61  60  97 E6        29.91R
LAND O LAKES   RAIN      63  61  96 SE6       29.92S
PHILLIPS       RAIN      62  62  99 E7        29.84F
TOMAHAWK       RAIN      61  59  94 SE5       29.86R
MEDFORD        RAIN      62  62 100 SE5       29.84F
MERRILL        LGT RAIN  62  62 100 SE15G21   29.85F
$$

WIZ029-030-035-036-043>047-260300-
CENTRAL WISCONSIN

CITY           SKY/WX    TMP DP  RH WIND       PRES   REMARKS
WAUSAU         LGT RAIN  64  32  30 E12       29.84F
MOSINEE        RAIN      63  63 100 E10       29.86F FOG
MARSHFIELD     LGT RAIN  65  62  90 SE7       29.86S
STEVENS POINT  CLOUDY    61  60  97 SE8       29.88R
WAUPACA        RAIN      65  64  98 CALM      29.90R
WAUTOMA        LGT RAIN  64  63  94 SE7G18    29.89R
WISC RAPIDS    PTCLDY    64  61  90 S5        29.88R
CAMP DOUGLAS   NOT AVBL
$$

WIZ011>013-019>022-031-037>040-048>050-260300-
NORTHEAST WISCONSIN

CITY           SKY/WX    TMP DP  RH WIND       PRES   REMARKS
ANTIGO         LGT RAIN  58  58  98 SE13      29.90S
SHAWANO        DRIZZLE   60  58  92 E9        29.89F
OCONTO         CLOUDY   N/A N/A N/A CALM      29.91F
STURGEON BAY   NOT AVBL
GREEN BAY      CLOUDY    60  58  92 E8        29.91F
MANITOWOC      CLOUDY    54  52  94 CALM      29.94R
APPLETON       LGT RAIN  59  59 100 E8        29.89S
CLINTONVILLE   CLOUDY    59  59 100 E8        29.89R
OSHKOSH        HVY RAIN  60  58  92 E8        29.90S FOG
$$

WIZ032>034-041-042-053>061-260300-
SOUTHWEST WISCONSIN

CITY           SKY/WX    TMP DP  RH WIND       PRES   REMARKS
LA CROSSE      CLEAR     72  64  76 S3        29.83R
SPARTA         MOCLDY    72  66  83 CALM      29.86R
VIROQUA        CLEAR     72  61  68 CALM      29.87R
BOSCOBEL       PTCLDY    72  65  78 CALM      29.85R
PRAIRIE DU CHI CLEAR     76  58  53 W3        29.84R
PLATTEVILLE    CLEAR     75  60  59 SW7       29.87R
$$

WIZ056-057-062-063-064-067-068-260300-
SOUTH CENTRAL WISCONSIN

CITY           SKY/WX    TMP DP  RH WIND       PRES   REMARKS
REEDSBURG      CLOUDY    69  66  89 CALM      29.86R
BARABOO/DELLS  CLOUDY    69  64  83 N5        29.86R THUNDER
LONE ROCK      NOT AVBL
MINERAL POINT  CLEAR     73  59  60 SW7       29.88R
MADISON        MOCLDY    72  64  76 S15       29.86R
MIDDLETON      PTCLDY    77  62  60 S13       29.86R
WATERTOWN      CLOUDY    68  67  97 SE5       29.88R
MONROE         PTCLDY    70  64  83 SE9       29.89R
JANESVILLE     MOCLDY    70  66  88 SE8       29.88R
$$

WIZ051-052-058>065-066-070>072-260300-
SOUTHEAST WISCONSIN

CITY           SKY/WX    TMP DP  RH WIND       PRES   REMARKS
MILWAUKEE      LGT RAIN  54  53  97 E5        29.94R FOG
WAUKESHA       LGT RAIN  59  57  94 E8        29.92F FOG
MILWAUKEE/TIMM RAIN      57  55  94 E3        29.93R
RACINE         LGT RAIN  58  56  93 NE5       29.96R FOG
BURLINGTON     CLOUDY    67  64  92 SE8       29.91F
KENOSHA        LGT RAIN  67  63  87 S13G24    29.93R
FOND DU LAC    TSTM      62  60  93 E9        29.91R FOG
SHEBOYGAN      HVY RAIN  53  52  96 E9        29.92R FOG
WEST BEND      CLOUDY    59  57  94 E7        29.91F FOG
JUNEAU         LGT RAIN  65  63  94 E7        29.90R
$$

LSZ147-162-260300-
LAKE SUPERIOR

STATION/POSITION TIME  TEMP    WIND        PRES    WAVE
                       AIR SEA DIR/SP/G            HT/PER
                 (UTC) (F)     (DEG/KT/KT) (MB)    (FT/S)
W MID LAKE BUOY  0050   41 38   50/ 16/ 17 1013.5F   4/ 5
DEVILS ISLAND    0100   44     340/  8/  9 1015.1F
SAXON HARBOR     0100   47      CALM  /  3 1013.5S
$$

LMZ867-665-643>646-260300-
LAKE MICHIGAN

STATION/POSITION TIME  TEMP    WIND        PRES    WAVE
                       AIR SEA DIR/SP/G            HT/PER
                 (UTC) (F)     (DEG/KT/KT) (MB)    (FT/S)
CHAMBERS ISLAND  0100   56     340/  5/  6 1013.9
N MID LAKE BUOY  0050   50 45   60/  8/ 10 1013.5F   1
NORTHPORT PIER   0100   54     160/  2/ 18 1013.5F
SISTER BAY       0120   60     130/  6/  9   N/A
ALGOMA LAKESHORE 0117           50/  8/ 12   N/A
KEWAUNEE LAKESHO 0100                      1012.6F
SHEBOYGAN LAKESH 0100   49      20/  7/  8 1013.4F
PORT WASHINGTON  0100   53      40/  6/  9 1013.9S
S MID LAKE BUOY  0050   57 52  160/ 17/ 17 1013.2R   0
KENOSHA   LAKESH 0100   62     190/ 10/ 15 1012.9R
$$

TC  - TEMPERATURE IN CELSIUS
VSB - VISIBILITY IN STATUTE MILES
WCI - WIND CHILL INDEX
HX  - HEAT INDEX





USA.gov is the U.S. government's official web portal to all federal, state and local government web resources and services.